TimeCDT,TemperatureF,Dew PointF,Humidity,Sea Level PressureIn,VisibilityMPH,Wind Direction,Wind SpeedMPH,Gust SpeedMPH,PrecipitationIn,Events,Conditions,WindDirDegrees,DateUTC
12:10 AM,49.3,38.3,66,29.31,10.0,WNW,13.8,18.4,N/A,,Overcast,290,2012-10-18 05:10:00
12:30 AM,48.6,38.8,69,29.30,10.0,West,17.3,23.0,N/A,,Overcast,280,2012-10-18 05:30:00
12:50 AM,47.7,39.2,72,29.29,10.0,West,18.4,-,N/A,,Overcast,280,2012-10-18 05:50:00
1:10 AM,46.8,39.2,75,29.29,10.0,WNW,13.8,-,N/A,,Overcast,290,2012-10-18 06:10:00
1:30 AM,46.6,39.2,75,29.28,10.0,West,12.7,-,N/A,,Overcast,270,2012-10-18 06:30:00
1:50 AM,46.4,38.8,75,29.29,10.0,West,13.8,-,N/A,,Overcast,280,2012-10-18 06:50:00
2:10 AM,46.6,38.5,73,29.30,10.0,West,11.5,-,N/A,,Overcast,270,2012-10-18 07:10:00
2:30 AM,46.4,39.2,76,29.30,7.0,West,11.5,17.3,N/A,,Overcast,270,2012-10-18 07:30:00
2:50 AM,45.5,40.1,81,29.29,7.0,WSW,8.1,-,N/A,,Overcast,250,2012-10-18 07:50:00
3:10 AM,45.5,40.3,82,29.28,5.0,WSW,8.1,-,N/A,,Light Drizzle,250,2012-10-18 08:10:00
3:30 AM,45.5,41.0,84,29.27,4.0,West,11.5,-,N/A,Rain,Light Rain,260,2012-10-18 08:30:00
3:50 AM,45.1,41.0,85,29.26,7.0,West,11.5,-,N/A,,Overcast,260,2012-10-18 08:50:00
4:10 AM,45.1,41.0,85,29.26,5.0,West,10.4,-,N/A,,Overcast,260,2012-10-18 09:10:00
4:30 AM,45.0,40.5,84,29.26,10.0,West,13.8,-,N/A,,Overcast,270,2012-10-18 09:30:00
4:50 AM,45.0,40.1,83,29.25,10.0,West,10.4,17.3,N/A,,Overcast,260,2012-10-18 09:50:00
5:10 AM,45.0,40.1,83,29.24,10.0,West,11.5,-,N/A,,Overcast,260,2012-10-18 10:10:00
5:30 AM,45.0,40.3,84,29.24,10.0,WSW,9.2,-,N/A,,Overcast,250,2012-10-18 10:30:00
5:50 AM,45.0,40.1,83,29.24,10.0,West,9.2,-,N/A,,Overcast,260,2012-10-18 10:50:00
6:10 AM,45.0,40.1,83,29.24,10.0,WSW,10.4,-,N/A,,Overcast,250,2012-10-18 11:10:00
6:30 AM,45.0,40.1,83,29.23,10.0,WSW,10.4,-,N/A,,Overcast,250,2012-10-18 11:30:00
6:50 AM,45.0,40.1,83,29.23,10.0,WSW,8.1,-,N/A,,Overcast,250,2012-10-18 11:50:00
7:10 AM,45.1,40.1,82,29.23,10.0,WSW,9.2,-,N/A,,Overcast,250,2012-10-18 12:10:00
7:30 AM,45.0,40.1,83,29.23,7.0,WSW,8.1,-,N/A,,Overcast,250,2012-10-18 12:30:00
7:50 AM,45.0,40.1,83,29.23,4.0,WSW,8.1,-,N/A,,Haze,250,2012-10-18 12:50:00
8:10 AM,44.8,40.3,84,29.23,3.0,West,8.1,-,N/A,,Haze,260,2012-10-18 13:10:00
8:30 AM,44.8,40.5,85,29.23,1.2,WSW,8.1,-,0.01,Rain,Light Rain,240,2012-10-18 13:30:00
8:50 AM,44.8,40.6,85,29.23,2.0,West,10.4,-,0.01,Rain,Light Rain,260,2012-10-18 13:50:00
9:10 AM,44.8,40.3,84,29.23,10.0,West,8.1,-,0.01,,Overcast,260,2012-10-18 14:10:00
9:30 AM,44.8,40.1,84,29.23,10.0,WSW,6.9,-,0.01,,Overcast,250,2012-10-18 14:30:00
9:50 AM,45.0,40.1,83,29.22,10.0,WSW,12.7,-,0.01,,Overcast,250,2012-10-18 14:50:00
10:11 AM,45.7,40.5,82,29.23,10.0,West,12.7,-,N/A,,Overcast,260,2012-10-18 15:11:00
10:30 AM,45.1,39.4,80,29.23,10.0,WSW,6.9,-,N/A,,Overcast,250,2012-10-18 15:30:00
10:50 AM,45.5,39.2,79,29.23,10.0,West,6.9,-,N/A,,Light Drizzle,270,2012-10-18 15:50:00
11:10 AM,45.1,39.2,80,29.23,10.0,West,8.1,-,N/A,,Light Drizzle,270,2012-10-18 16:10:00
11:30 AM,45.0,39.7,82,29.23,7.0,West,6.9,-,N/A,,Overcast,260,2012-10-18 16:30:00
11:50 AM,45.9,39.2,78,29.23,10.0,SW,6.9,-,N/A,,Overcast,230,2012-10-18 16:50:00
12:10 PM,46.2,38.1,73,29.23,10.0,SSW,4.6,-,N/A,,Overcast,210,2012-10-18 17:10:00
12:30 PM,45.7,37.8,74,29.24,10.0,WSW,4.6,-,N/A,Rain,Light Rain,250,2012-10-18 17:30:00
12:50 PM,45.9,37.0,71,29.24,10.0,Calm,Calm,-,N/A,,Overcast,0,2012-10-18 17:50:00
1:10 PM,45.9,37.8,73,29.24,7.0,SW,8.1,-,N/A,Rain,Light Rain,230,2012-10-18 18:10:00
1:30 PM,45.1,39.0,79,29.24,7.0,SSW,4.6,-,N/A,Rain,Light Rain,210,2012-10-18 18:30:00
1:50 PM,45.9,39.4,78,29.24,10.0,SSW,4.6,-,N/A,,Overcast,210,2012-10-18 18:50:00
2:10 PM,47.1,38.7,72,29.25,10.0,SSW,5.8,-,N/A,,Overcast,200,2012-10-18 19:10:00
2:30 PM,46.8,38.5,73,29.25,10.0,South,6.9,-,N/A,,Overcast,190,2012-10-18 19:30:00
2:50 PM,47.3,38.1,70,29.25,10.0,South,5.8,-,N/A,,Overcast,180,2012-10-18 19:50:00
3:10 PM,47.3,38.7,72,29.26,10.0,South,6.9,-,N/A,,Overcast,180,2012-10-18 20:10:00
3:30 PM,47.5,37.9,69,29.27,10.0,SSW,3.5,-,N/A,,Overcast,210,2012-10-18 20:30:00
3:50 PM,47.8,37.9,69,29.27,10.0,South,3.5,-,N/A,,Overcast,170,2012-10-18 20:50:00
4:10 PM,47.8,38.1,69,29.28,10.0,South,3.5,-,N/A,,Overcast,190,2012-10-18 21:10:00
4:31 PM,47.8,38.1,69,29.29,10.0,South,3.5,-,N/A,,Overcast,170,2012-10-18 21:31:00
4:50 PM,47.8,38.5,70,29.29,10.0,SE,3.5,-,N/A,,Overcast,140,2012-10-18 21:50:00
5:10 PM,47.7,38.5,70,29.30,10.0,Calm,Calm,-,N/A,,Overcast,0,2012-10-18 22:10:00
5:31 PM,47.7,38.5,70,29.30,10.0,Calm,Calm,-,N/A,,Overcast,0,2012-10-18 22:31:00
5:50 PM,47.7,38.7,71,29.31,10.0,Calm,Calm,-,N/A,,Overcast,0,2012-10-18 22:50:00
6:10 PM,47.5,39.0,72,29.32,10.0,Calm,Calm,-,N/A,,Overcast,0,2012-10-18 23:10:00
6:30 PM,47.3,39.2,73,29.32,10.0,Calm,Calm,-,N/A,,Overcast,0,2012-10-18 23:30:00
6:50 PM,47.3,39.2,73,29.32,10.0,Calm,Calm,-,N/A,,Overcast,0,2012-10-18 23:50:00
7:10 PM,46.8,39.2,75,29.33,10.0,Calm,Calm,-,N/A,,Overcast,0,2012-10-19 00:10:00
7:30 PM,46.6,39.7,77,29.34,10.0,Calm,Calm,-,N/A,,Overcast,0,2012-10-19 00:30:00
7:50 PM,46.4,40.1,79,29.35,10.0,Calm,Calm,-,N/A,,Overcast,0,2012-10-19 00:50:00
8:11 PM,45.9,40.3,81,29.35,10.0,Calm,Calm,-,N/A,,Overcast,0,2012-10-19 01:11:00
8:30 PM,45.9,40.3,81,29.35,10.0,Calm,Calm,-,N/A,,Overcast,0,2012-10-19 01:30:00
8:50 PM,45.9,40.3,81,29.36,10.0,Calm,Calm,-,N/A,,Overcast,0,2012-10-19 01:50:00
9:10 PM,45.7,40.3,81,29.36,10.0,Calm,Calm,-,N/A,,Overcast,0,2012-10-19 02:10:00
9:30 PM,45.5,40.3,82,29.37,10.0,Calm,Calm,-,N/A,,Overcast,0,2012-10-19 02:30:00
9:50 PM,45.0,40.3,84,29.37,10.0,Calm,Calm,-,N/A,,Overcast,0,2012-10-19 02:50:00
10:10 PM,45.0,40.3,84,29.37,10.0,Calm,Calm,-,N/A,,Overcast,0,2012-10-19 03:10:00
10:30 PM,45.1,40.1,82,29.37,10.0,Calm,Calm,-,N/A,,Overcast,0,2012-10-19 03:30:00
10:50 PM,44.8,40.1,84,29.37,10.0,Calm,Calm,-,N/A,,Overcast,0,2012-10-19 03:50:00
11:10 PM,44.6,40.3,85,29.37,10.0,Calm,Calm,-,N/A,,Overcast,0,2012-10-19 04:10:00
11:30 PM,44.6,40.1,84,29.38,10.0,Calm,Calm,-,N/A,,Overcast,0,2012-10-19 04:30:00
11:50 PM,44.6,40.1,84,29.38,10.0,Calm,Calm,-,N/A,,Overcast,0,2012-10-19 04:50:00